7 * 24
多渠道服务支持
STARLINK-32852 是 SpaceX Starlink 卫星互联网项目中的一颗低轨道卫星,属于第三代星链卫星(v1.5 或 v2 版本)。该卫星由 SpaceX 发射,旨在为全球用户提供高速、低延迟的宽带互联网服务。它运行在约 550 公里的轨道高度,配备先进推进系统和激光通信技术,以提升网络性能和卫星间通信效率。STARLINK-32852 的部署有助于扩大 Starlink 网络覆盖范围,特别是在偏远和网络基础设施薄弱的地区。
美国
(US)
| 数据来源 | 国际轨道数据 |
| 星历时间: | 2025-11-06T22:43:42+0800 1天前 查看轨道信息 |
| 半长轴: | 6853.251km |
| 偏心率: | 0.00028 |
| 轨道倾角: | 53.156° |
| 近地点辐角 | 95.736° |
| 升交点赤经 | 161.361° |
| 平近点角 | 264.396° |
| 近地点: | 473.197km |
| 远地点: | 477.035km |
| 周期: | 94.103分钟 |
| 每日圈数: | 15.30234 |